Location: Wildlife_Club
(35.6000°N, 81.4330°W)
Time: 19:19:56
(UTC-04:00)

Courier 1B Rocket - Pass Details

Date: 16 June 2019
Orbit: 920 x 1202 km, 28.2° (Epoch: 19 July)

Event Time Altitude Azimuth Distance (km) Brightness Sun altitude
Exits shadow 05:31:52 - 198° (SSW) 3,628 7.5 -7.3°
Reaches altitude 10° 05:37:03 10° 163° (SSE) 2,701 7.2 -6.4°
Maximum altitude 05:38:15 11° 152° (SSE) 2,648 7.2 -6.2°
Drops below altitude 10° 05:39:28 10° 141° (SE) 2,674 7.4 -6.0°
Sets 05:44:47 0° 104° (ESE) 3,572 8.7 -5.1°
